GEFSMW_500_meanwind_024.txt.gz
Wind_Speed
36 37 37 37 36 36 36 36 36 35 37 36 34 31 30 29 30 32 34 35 36 37 39 40 41 42 43 43 44 44 45 46 46 46 47 47 48 48 49 50 52 53 55
39 39 40 40 39 38 38 39 39 40 39 39 38 36 33 33 35 36 37 38 39 41 43 44 44 44 44 44 43 44 45 45 46 47 47 47 49 51 52 53 55 57 59
41 41 42 42 41 40 39 40 42 43 42 41 41 38 37 37 38 38 39 40 42 43 44 44 44 44 45 44 43 43 44 46 47 48 49 49 51 52 55 58 60 61 63
40 42 40 39 38 38 39 42 44 45 46 45 42 39 38 37 37 38 40 41 43 44 45 46 45 46 46 45 45 45 46 48 50 51 52 53 54 55 57 60 62 63 63
41 40 37 36 36 37 41 43 45 48 47 42 40 37 35 36 37 38 40 42 43 45 46 46 47 47 47 48 48 49 50 51 53 55 57 59 60 60 60 60 61 62 63
39 37 35 35 36 39 42 44 47 46 44 42 39 37 36 36 38 39 41 42 44 45 46 47 48 49 49 50 51 52 53 55 57 59 61 62 62 63 62 61 61 62 64
33 33 32 33 36 40 43 45 47 47 46 44 41 39 37 38 40 41 43 44 46 47 48 49 49 50 50 51 53 55 57 59 60 62 62 63 63 63 64 64 65 65 65
28 30 31 33 37 41 44 46 46 46 45 43 41 40 40 41 43 44 45 47 48 49 50 50 51 51 52 54 57 58 60 61 62 63 63 63 64 65 67 67 67 66 66
29 31 33 36 39 42 43 44 43 41 40 40 40 41 43 44 45 47 48 50 52 52 53 54 54 55 57 59 60 62 63 64 63 63 64 66 66 67 67 68 68 68 67
32 34 36 39 41 42 43 42 40 37 37 37 39 42 44 45 47 49 51 53 54 55 56 57 58 59 61 62 63 64 65 64 64 64 65 66 67 68 68 68 69 70 71
35 37 38 40 42 43 42 43 38 34 35 37 40 42 45 47 49 51 53 55 56 57 58 60 62 63 63 64 65 64 63 63 64 65 65 66 66 65 65 67 68 71 73
38 38 40 41 43 44 43 40 35 34 36 39 42 45 47 49 51 53 55 56 58 60 62 64 65 64 63 64 66 64 63 63 62 62 63 61 61 62 64 67 69 71 73
43 42 42 43 44 45 43 40 37 37 39 42 45 48 50 53 54 56 58 60 62 64 65 65 64 63 63 63 62 62 61 60 59 58 57 58 60 62 65 67 69 69 68
43 43 44 45 46 47 44 41 40 40 43 46 49 51 54 56 57 59 62 63 64 65 64 62 61 61 61 62 62 60 58 56 55 55 57 59 61 63 65 65 64 61 57
42 42 42 44 45 46 47 47 46 47 48 50 52 54 56 58 60 61 62 62 62 61 60 60 60 60 60 59 57 55 54 53 54 56 58 59 61 62 62 59 54 50 45
41 41 44 46 48 49 51 51 51 51 51 52 53 55 56 57 58 59 60 59 59 59 59 58 58 57 55 53 52 52 52 53 54 55 57 58 58 56 52 47 44 40 35
49 49 49 50 51 51 52 52 52 52 52 52 52 53 53 53 54 56 56 57 56 56 55 54 54 51 50 49 50 51 52 53 54 54 54 52 49 45 40 37 33 30 26
55 54 53 52 52 52 51 51 51 50 50 50 49 49 50 50 51 52 52 52 52 52 51 50 49 48 48 48 49 50 51 51 51 49 46 42 38 35 30 26 23 20 17
54 53 52 52 51 50 50 49 49 48 47 46 45 45 46 46 47 48 49 49 50 49 47 47 46 47 47 47 47 47 47 46 44 40 37 33 30 26 21 17 14 12 11
50 50 50 50 49 48 47 46 45 43 42 41 41 41 42 44 45 46 46 45 45 44 44 45 45 45 45 44 42 41 40 38 35 32 30 27 23 18 14 11 10 9 8
47 47 47 46 46 45 44 42 40 38 37 37 38 39 40 42 42 42 43 43 43 43 43 43 42 41 39 37 36 34 32 29 27 25 23 20 15 11 9 8 8 8 8
44 43 43 43 42 41 40 38 36 35 36 37 38 39 39 39 39 39 39 40 41 41 40 38 36 34 32 30 29 28 26 23 21 18 15 11 8 7 6 7 7 8 9
40 40 39 39 37 36 34 33 33 34 34 35 36 36 36 37 37 38 38 38 37 36 34 31 29 27 26 25 24 24 22 18 14 10 7 6 6 6 7 7 8 8 10
36 36 35 34 32 31 31 31 32 33 33 32 33 34 35 36 36 36 35 34 32 30 28 26 24 23 23 22 22 21 17 12 7 5 5 6 7 7 7 7 8 9 10
29 28 28 27 27 27 28 29 29 29 30 31 32 33 34 34 33 31 30 28 27 25 24 23 22 21 21 20 18 16 12 7 5 6 7 7 8 8 8 9 9 10 11
21 20 21 22 23 23 24 25 26 28 30 31 31 31 30 29 27 26 25 25 23 22 22 21 20 18 17 15 13 9 4 3 7 8 8 8 9 10 10 10 10 11 12

GEFSMW_500_meanwind_030.txt.gz
Wind_Speed
27 25 23 23 23 23 25 27 29 32 34 35 36 37 38 39 38 36 34 35 35 34 34 34 35 34 34 33 34 33 34 35 36 38 39 40 41 42 43 44 45 47 48
30 28 27 26 25 25 26 28 30 33 35 37 39 40 41 40 39 37 35 33 33 34 35 34 34 34 33 33 32 33 35 38 39 40 41 42 43 44 46 47 49 50 52
31 30 30 29 28 27 28 31 33 35 37 39 41 42 42 41 39 33 31 30 31 32 31 30 32 32 32 34 36 37 39 41 42 43 44 45 46 47 48 50 51 54 56
33 32 32 32 31 31 33 35 37 39 41 42 43 43 43 40 34 31 29 27 27 28 28 29 31 32 35 38 39 41 43 45 46 47 47 48 49 51 52 53 56 58 60
35 34 34 34 34 36 38 39 41 43 44 44 44 45 42 38 33 30 29 27 28 29 29 30 33 36 39 42 44 45 47 48 50 51 52 54 55 56 57 58 60 61 63
36 34 34 36 37 39 41 43 44 44 45 46 46 44 39 37 35 33 31 30 30 31 33 35 38 40 43 45 48 50 51 52 54 55 57 58 59 61 63 63 63 63 63
37 37 37 38 39 40 41 42 42 43 43 43 43 42 38 38 37 35 32 31 32 34 37 39 42 44 47 49 51 52 54 57 58 60 61 63 65 67 67 66 66 64 63
34 35 36 36 37 38 38 38 39 40 41 42 42 41 41 39 38 35 33 34 36 38 40 42 45 47 50 53 54 56 59 61 62 64 66 68 68 68 67 67 65 64 63
32 32 32 32 33 33 34 35 36 39 41 42 43 43 41 40 40 37 37 39 40 42 44 46 49 52 54 57 58 61 63 65 67 68 69 68 67 66 65 65 65 65 63
31 31 31 31 31 33 34 36 38 40 42 44 45 44 42 42 41 40 41 42 44 46 48 50 53 56 59 61 62 64 66 68 68 68 68 66 64 63 63 63 63 64 64
31 31 31 32 33 35 37 40 42 44 45 46 46 46 45 45 45 44 45 46 48 50 52 55 57 60 62 64 65 66 67 67 67 65 64 62 61 61 61 62 63 64 65
32 32 32 34 36 38 40 43 45 46 48 48 48 48 48 47 47 47 48 49 51 53 55 57 59 62 63 65 65 65 65 64 63 61 60 60 60 61 62 63 64 65 66
33 33 35 37 39 41 43 45 47 48 49 49 49 50 49 49 50 50 51 52 53 55 57 59 60 62 63 63 63 63 62 60 60 59 59 59 60 61 62 63 64 65 65
36 36 38 39 41 44 45 47 49 50 51 51 52 52 52 52 52 52 53 54 55 56 58 59 60 61 61 61 61 60 59 59 59 58 59 59 60 61 62 62 63 62 59
39 40 41 42 44 46 48 50 51 53 53 53 53 53 53 52 52 53 54 55 56 57 58 58 59 59 59 58 58 57 57 58 57 58 59 60 60 60 60 59 57 53 48
40 42 44 46 48 50 51 53 54 55 55 55 53 52 51 51 52 52 53 54 55 55 55 55 56 56 56 56 55 56 57 57 57 57 58 58 57 56 54 51 47 42 36
42 45 47 49 51 52 53 54 54 54 54 52 51 51 50 50 50 51 52 52 52 53 53 53 53 53 53 54 55 55 55 55 55 54 54 53 51 48 43 39 35 31 26
44 46 47 49 50 52 53 53 53 53 52 50 50 49 49 49 49 49 49 49 50 49 50 50 50 51 52 52 52 52 53 53 52 50 48 45 41 37 32 27 25 22 20
43 45 47 49 50 51 51 51 51 50 49 48 48 47 47 47 46 46 47 47 47 47 48 49 49 50 50 50 49 49 49 47 45 43 40 36 31 26 21 19 17 16 16
44 45 46 48 49 49 49 49 48 47 47 46 46 45 45 44 44 45 45 45 46 46 47 47 47 47 47 47 46 43 41 39 37 35 32 27 21 16 14 13 12 13 14
43 44 45 46 46 46 46 46 45 45 45 44 43 42 42 42 42 43 43 44 44 45 45 45 45 44 43 41 38 35 33 31 29 28 24 19 14 11 10 10 10 12 13
40 41 41 42 42 43 43 42 42 41 41 40 40 40 40 40 41 41 42 42 43 43 42 42 40 39 36 33 31 29 27 25 23 20 15 11 9 8 8 9 11 12 15
37 38 39 40 40 40 39 38 37 36 36 36 37 38 38 39 39 39 40 40 40 39 38 36 34 32 30 28 27 25 22 19 15 11 7 6 6 7 8 9 11 13 15
36 36 36 36 35 34 32 32 32 32 33 34 35 35 36 37 37 38 37 37 35 33 31 30 28 26 25 24 22 19 14 9 6 3 3 5 6 7 8 9 11 13 15
30 29 29 28 27 26 26 27 29 30 30 31 33 34 35 35 35 34 32 31 29 27 26 25 23 22 21 19 15 11 6 2 1 3 5 6 6 7 8 10 12 14 16
22 21 20 21 21 23 24 26 27 28 30 31 31 31 31 31 30 29 27 26 24 23 22 21 19 17 15 12 8 3 1 4 5 5 6 6 7 7 8 10 12 14 15

GEFSMW_500_meanwind_036.txt.gz
Wind_Speed
23 23 24 26 26 26 27 26 26 26 27 28 30 32 34 35 39 41 42 41 38 36 36 36 37 38 39 38 38 38 37 35 33 32 32 31 31 31 33 34 36 37 39
28 27 26 27 28 28 29 29 29 29 30 32 34 35 37 39 42 43 41 38 35 33 34 34 33 34 35 36 36 35 34 33 32 31 31 32 32 32 35 37 39 41 43
32 32 31 30 29 29 30 31 31 33 34 35 36 38 40 41 42 42 41 39 37 32 31 31 30 29 31 33 32 32 32 31 30 31 32 35 37 39 39 41 44 46 48
37 36 34 32 31 31 32 33 34 36 37 38 38 40 41 43 43 44 42 41 35 32 30 28 27 25 27 28 29 29 29 30 32 33 36 38 41 44 46 46 48 51 54
40 38 36 34 33 33 33 35 36 37 38 39 40 41 41 42 44 42 40 39 34 32 29 28 27 26 27 27 28 30 32 34 35 37 40 42 45 47 49 53 56 58 59
41 38 36 34 33 33 34 35 36 38 39 40 40 40 40 41 41 39 39 37 35 34 32 30 29 29 29 31 33 35 37 38 40 42 45 47 49 51 54 57 59 61 63
37 35 34 32 32 32 33 34 35 36 37 38 38 38 38 38 38 38 37 36 35 34 33 32 32 33 34 35 37 38 40 43 45 47 49 51 54 56 59 61 62 63 64
31 31 30 29 29 30 31 33 34 35 36 37 37 37 37 37 37 37 37 36 36 36 35 35 35 36 38 39 41 43 45 48 50 51 53 56 57 59 61 63 64 64 64
27 27 27 27 27 29 30 31 33 34 36 36 36 36 37 37 37 38 38 39 39 39 39 39 40 41 42 44 46 48 50 51 53 55 57 59 60 61 62 63 64 64 63
25 25 26 27 28 29 30 31 33 34 35 36 36 37 38 39 39 40 41 42 43 43 44 44 45 46 46 48 49 51 53 54 56 58 59 60 61 62 62 62 62 62 62
25 26 27 29 30 31 32 33 34 35 36 37 38 39 40 41 42 44 45 46 46 47 47 48 48 48 49 50 52 53 54 56 57 58 59 60 60 61 61 61 61 62 62
26 28 29 31 32 33 34 36 37 38 39 40 41 42 43 44 46 47 49 50 50 50 49 49 50 50 51 52 53 54 55 57 57 58 58 58 59 58 59 59 60 61 62
30 32 33 34 36 37 39 40 41 42 43 44 44 45 46 48 49 50 51 52 51 51 50 50 51 51 52 53 54 55 56 56 56 56 56 56 56 57 57 58 59 60 61
35 36 37 39 40 41 43 44 45 46 47 47 48 48 49 50 51 52 53 53 53 52 52 52 52 52 53 53 54 54 54 55 55 54 54 54 54 55 57 57 58 58 57
40 41 41 42 43 44 45 47 47 48 48 48 49 49 50 51 52 53 53 53 54 54 53 53 53 53 53 53 53 53 53 53 53 52 52 53 54 55 55 55 54 53 49
42 42 43 44 44 44 44 45 45 45 45 46 47 49 51 52 53 53 53 53 54 53 53 53 53 53 53 52 52 52 52 51 51 51 52 52 52 52 52 50 48 44 39
41 41 42 42 42 43 44 43 44 44 45 46 47 49 51 52 53 53 53 53 52 52 52 52 52 52 52 52 51 51 50 50 49 49 50 50 49 48 45 42 39 34 30
38 38 38 39 40 41 41 42 43 44 46 47 49 50 50 51 51 51 51 51 51 51 51 51 51 51 50 50 50 49 48 48 48 47 46 44 42 39 36 33 29 27 25
36 36 36 37 38 40 41 42 44 46 47 48 48 49 49 49 49 49 49 49 49 49 49 49 49 49 48 48 47 47 47 45 44 42 40 37 33 30 26 23 22 21 22
34 36 37 39 40 41 43 44 45 45 46 46 47 47 48 48 48 47 47 47 47 47 47 47 47 47 46 45 45 44 42 40 38 36 33 28 24 21 18 17 17 19 20
34 36 38 39 40 40 41 42 43 44 44 45 45 45 45 45 45 45 44 44 45 45 45 44 44 43 42 41 39 37 35 33 31 28 25 21 16 13 12 14 15 17 19
33 35 36 37 38 39 40 40 41 41 42 42 42 42 41 41 41 41 41 41 41 41 41 40 39 38 36 34 32 29 27 25 23 21 17 13 10 9 11 13 14 16 17
33 34 35 35 36 37 37 37 37 38 38 38 38 38 38 38 38 38 38 39 38 38 37 36 34 32 29 27 24 22 20 18 16 13 9 7 7 8 10 11 13 14 15
31 31 32 32 32 33 33 33 33 34 34 34 35 35 36 36 36 35 35 34 33 32 30 29 27 26 24 21 19 16 14 11 8 5 4 3 5 6 8 9 11 12 14
26 26 27 27 27 28 28 29 30 31 32 32 33 33 33 32 31 31 30 29 28 26 24 23 21 19 17 14 12 10 7 4 2 1 0 2 4 5 7 9 11 13 15
21 22 22 23 24 25 26 28 28 29 29 29 28 28 27 27 27 26 25 23 21 19 17 16 14 13 11 8 6 3 1 2 3 3 3 4 5 6 8 10 11 13 16

GEFSMW_500_meanwind_042.txt.gz
Wind_Speed
22 23 24 24 22 19 19 21 24 25 27 28 29 30 30 31 32 33 35 34 35 34 33 32 32 31 31 31 30 28 29 31 32 34 34 34 35 37 37 37 38 37 37
27 27 27 27 26 24 23 24 26 28 30 32 32 32 33 33 34 35 36 37 36 35 34 33 32 31 30 31 30 29 29 29 29 30 31 31 33 34 34 36 37 37 38
31 30 30 29 29 29 28 28 29 31 33 34 34 35 36 36 36 37 38 39 38 37 35 34 33 32 31 30 30 30 30 29 28 29 29 30 31 32 34 34 35 37 39
31 32 32 32 34 34 34 32 33 34 35 35 36 37 38 38 39 40 40 40 39 37 37 36 34 33 31 31 31 31 31 31 31 31 31 32 34 35 35 37 40 42 44
33 34 36 36 36 36 37 36 36 36 36 37 37 38 39 40 41 42 42 41 39 39 38 37 36 35 34 33 33 33 33 34 35 35 35 36 38 40 42 44 45 48 51
34 35 36 37 38 39 39 39 38 37 37 38 39 40 41 42 43 43 43 42 41 40 40 38 38 37 37 36 36 36 36 37 38 39 40 41 43 45 47 49 50 53 56
39 38 38 38 39 39 39 39 37 37 37 38 40 41 41 42 43 43 43 42 42 41 41 40 39 40 40 39 39 39 39 40 42 43 44 45 48 50 52 53 55 58 60
43 42 40 38 37 37 37 36 36 37 37 38 39 40 41 42 43 43 43 43 43 42 42 42 42 42 41 41 42 42 43 43 44 46 47 49 51 54 56 58 60 61 63
46 43 40 37 35 34 34 35 35 36 37 38 39 41 42 42 43 44 44 44 44 44 44 45 45 45 45 45 45 45 45 46 47 49 50 52 55 57 59 61 63 64 65
41 39 36 34 33 33 34 34 35 36 37 38 40 41 42 43 44 45 46 46 47 47 47 48 49 49 48 49 48 48 48 49 50 52 53 55 57 59 61 63 64 65 65
33 33 33 33 33 33 34 35 36 37 38 39 41 42 43 44 46 46 48 49 50 51 51 52 53 52 52 52 52 52 51 52 53 54 56 57 58 59 61 62 63 64 64
30 31 32 32 33 34 34 35 37 38 40 41 42 44 45 46 48 49 50 51 52 53 54 55 55 55 55 55 54 54 54 55 55 56 56 57 57 58 59 60 61 62 62
30 32 33 34 35 35 36 38 39 41 42 44 45 47 48 49 50 51 51 53 54 55 56 56 57 57 56 56 56 56 56 56 56 56 56 56 57 57 58 58 58 59 59
31 33 35 36 38 39 40 42 43 45 47 48 49 50 51 52 52 52 53 55 56 56 57 57 57 57 57 57 57 57 57 56 56 55 55 55 55 55 55 55 55 55 55
32 35 37 39 41 43 44 46 47 49 50 51 52 52 53 53 53 54 54 55 56 56 57 57 57 57 57 57 58 57 56 56 55 55 54 54 53 52 52 52 52 52 51
35 37 39 41 44 45 45 47 48 49 50 50 51 51 51 51 52 53 54 55 55 55 55 55 55 56 56 56 56 56 55 55 54 53 52 51 50 49 48 48 48 47 46
36 37 39 41 41 43 44 45 46 47 47 47 47 47 48 50 50 50 51 52 53 53 54 54 54 54 55 55 55 55 54 53 51 50 48 47 46 45 44 43 42 41 39
35 36 36 37 38 39 39 39 40 41 41 42 44 45 45 46 48 49 50 51 52 52 52 52 52 52 53 53 52 51 50 48 47 45 44 42 41 39 38 37 36 34 30
37 38 36 36 36 36 36 38 39 40 41 42 44 45 46 47 47 48 48 49 49 50 50 50 50 49 49 49 48 46 45 43 42 40 38 36 35 34 32 30 28 25 24
36 35 34 34 35 35 37 38 39 40 42 43 43 44 45 45 46 46 47 47 47 47 47 47 47 46 45 44 43 42 40 39 37 35 32 30 28 27 25 22 20 19 20
29 30 31 33 35 36 38 39 40 41 41 41 42 43 43 43 43 43 43 43 43 43 43 43 43 42 41 40 39 37 35 33 31 28 25 23 21 19 17 15 14 15 17
28 29 31 32 33 34 35 36 37 38 39 39 40 40 40 39 39 39 39 39 39 39 39 38 38 37 35 34 32 31 29 26 23 20 18 15 13 11 10 10 11 13 14
28 29 30 30 31 32 33 34 35 36 36 36 36 36 36 36 36 36 36 36 35 35 34 33 32 30 28 26 25 22 20 17 14 12 9 8 6 5 5 6 8 10 13
26 26 27 28 29 30 31 32 32 32 32 32 33 33 32 33 33 32 32 32 31 30 28 27 25 23 21 19 17 14 11 9 7 6 4 2 1 2 3 5 7 10 12
23 24 26 27 28 28 28 29 30 30 30 30 30 30 30 29 29 28 27 26 25 23 22 21 19 18 16 13 11 8 6 4 3 1 1 1 2 3 4 6 8 11 13
22 23 24 24 25 25 26 27 28 28 28 28 27 27 26 25 24 22 21 20 19 18 18 16 15 12 10 7 4 3 1 2 3 4 4 4 4 5 6 8 10 11 13

GEFSMW_500_meanwind_048.txt.gz
Wind_Speed
22 22 21 20 19 18 15 15 16 16 18 19 21 22 22 23 23 24 24 25 24 25 24 24 23 24 23 23 23 23 23 22 23 23 24 25 25 26 27 29 30 32 33
24 24 24 23 20 18 17 17 19 20 21 23 26 26 27 28 28 29 28 29 29 29 29 28 27 27 26 26 26 26 26 26 26 26 27 27 28 29 29 30 31 33 34
25 26 25 23 22 21 21 20 21 23 26 27 29 30 31 32 32 33 33 32 32 32 32 32 32 30 29 29 29 29 30 29 29 29 30 31 32 33 33 34 35 36 37
27 27 27 26 24 24 25 25 27 28 30 31 33 34 34 35 35 36 35 34 35 35 35 35 35 33 32 31 31 31 32 32 32 33 34 35 35 36 37 39 40 41 42
29 29 30 30 29 29 29 30 31 33 34 35 37 37 37 37 37 37 37 36 37 37 37 37 37 36 35 34 33 33 34 35 36 37 38 39 40 41 42 44 45 46 47
31 31 32 33 33 34 34 34 35 36 37 39 39 38 38 39 39 39 39 39 39 39 39 39 39 38 37 36 36 37 38 38 39 41 42 43 45 46 47 48 49 50 52
35 35 35 36 37 37 38 38 39 40 41 41 41 41 40 40 40 40 40 40 40 40 40 41 40 39 38 39 39 40 41 42 44 45 46 48 49 50 51 52 52 54 55
37 37 37 38 39 40 41 43 44 44 44 44 44 43 42 41 41 41 41 41 40 40 41 41 41 40 40 41 42 44 45 46 48 49 50 51 52 53 54 55 55 56 58
38 39 40 41 42 43 45 45 46 46 46 45 44 44 43 42 42 42 42 42 42 43 43 43 43 43 44 45 46 48 50 51 52 53 54 55 55 56 57 58 58 59 60
40 40 41 42 43 45 46 46 46 46 45 44 43 43 43 42 42 43 44 45 45 46 46 47 48 47 49 51 52 53 54 54 55 56 56 57 58 59 59 60 60 61 62
41 42 43 43 45 46 47 47 46 46 45 43 43 43 43 44 44 46 47 48 48 49 50 51 53 54 55 56 57 57 57 58 59 60 60 60 60 60 60 60 61 62 63
40 42 44 44 45 45 46 46 45 44 44 43 43 44 45 46 47 49 50 51 52 54 56 57 58 59 59 60 60 61 61 61 62 62 61 61 61 60 61 61 62 62 63
37 40 42 43 43 43 45 46 45 44 44 45 45 47 48 49 50 52 54 56 57 59 60 61 62 62 62 63 63 63 63 62 62 62 61 61 60 61 61 61 61 61 60
37 38 37 38 40 41 43 43 44 44 45 47 49 50 51 53 54 56 57 58 60 61 62 63 62 63 64 63 62 61 61 60 59 59 59 59 59 59 60 59 59 58 58
33 34 35 36 36 37 38 40 42 44 46 48 50 52 53 55 56 57 58 58 59 59 58 58 57 57 58 58 58 58 58 58 57 58 58 58 58 58 58 57 56 54 53
33 33 33 33 32 33 35 38 39 41 42 44 47 48 50 51 51 52 53 53 53 53 53 53 53 54 54 55 55 55 55 55 56 56 56 57 57 56 54 52 51 49 48
33 32 33 34 34 34 35 36 38 40 41 42 44 44 43 43 45 46 47 47 48 49 50 50 51 52 52 52 53 53 54 54 54 54 53 52 51 49 48 46 45 44 41
29 29 30 30 31 32 33 35 36 37 38 40 41 42 42 43 44 44 44 45 46 47 48 49 50 50 51 52 51 51 51 50 49 48 47 46 44 43 41 40 38 37 35
29 28 27 28 29 29 30 31 33 34 35 37 38 39 41 42 43 43 44 45 45 46 46 47 47 47 47 47 47 46 45 45 44 43 41 40 38 36 34 32 30 29 27
24 24 25 26 26 27 28 30 32 33 34 35 36 37 38 39 40 41 41 42 42 43 43 43 43 43 42 42 42 41 40 39 38 36 33 32 30 28 26 24 22 21 20
20 21 23 23 24 25 27 28 30 31 32 32 33 34 35 36 37 37 37 38 39 39 39 38 38 37 37 37 35 34 32 30 28 26 24 23 21 19 18 17 15 14 13
19 20 21 22 23 24 25 26 27 28 28 29 30 31 32 33 34 34 34 35 35 35 33 33 32 32 31 30 28 26 24 22 20 18 16 14 13 11 11 9 8 8 9
19 20 21 22 23 24 24 25 25 25 26 26 27 28 29 30 30 30 31 31 31 29 28 27 27 26 25 23 22 20 18 16 13 10 8 7 6 6 5 4 5 6 7
17 19 20 21 21 22 23 23 23 24 24 25 25 26 27 27 27 26 26 26 25 23 23 22 22 21 20 19 17 15 12 9 6 4 3 2 2 2 3 4 5 5 6
16 17 18 18 19 20 20 21 21 21 22 22 22 23 23 22 22 22 21 20 20 20 19 19 19 17 15 13 10 7 5 2 1 2 3 4 5 6 6 6 6 7 8
15 16 16 17 18 19 19 19 20 19 19 18 18 19 19 18 17 17 17 17 17 17 16 16 15 13 11 8 6 4 3 4 5 6 7 8 8 8 8 8 9 9 10